sat.trackr.live / text

‹ back to catalog

UMKA 1 (RS40S)

NORAD 57172 · 2023-091G

PAYLOAD ACTIVE UNKNOWN

§ Identity

Operator
Country
CIS
Launch date
2023-06-27
Launch site
VOSTO
Launch vehicle
Mass (kg)
RCS (m²)

Purposes: comms

External: N2YO · Heavens-Above · Gunter

§ Orbital elements

Epoch: 2026-05-25T04:40:20.587008Z

Period
94.71 min
Inclination
97.5065°
Eccentricity
0.0012588
Mean motion
15.20507840 rev/d
Perigee alt
495.6 km
Apogee alt
513.0 km
Semi-major
6,882.4 km
B*
2.6366e-4
RAAN
203.9837°
Arg perigee
192.5498°
Mean anomaly
167.5426°
Rev number
16,051

§ Raw data

UMKA 1 (RS40S)1 57172U 23091G   26145.19468272  .00005705  00000+0  26366-3 0  99962 57172  97.5065 203.9837 0012588 192.5498 167.5426 15.20507840160516

JSON: /api/v1/satellites/57172 · /tle

For live sub-satellite position, see the globe view (requires WebGL).

§ Visibility from observer

Set your observer location to see the next 7 days of passes ≥ 10°. The values pass through the URL so the page stays shareable.

No JS? Fill the form by hand. The geolocation button needs JavaScript.

§ Radio — SatNOGS DB

ModeDescriptionDownlinkUplink
BPSK Mode S - BPSK 2Mbps TLM 2.402 GHz
CW Mode U - CW 437.625 MHz
GMSK USP Mode U - GMSK 4k8 (USP) TLM 437.625 MHz
GMSK USP Mode U - GMSK 9k6 (USP) TLM 437.625 MHz
SSTV Mode U - SSTV 437.625 MHz
FSK Mode U - GMSK 2k4 (G3RUH) TLM (inactive) 437.625 MHz
GMSK USP Mode U - GMSK 2k4 (USP) TLM (inactive) 437.625 MHz
FSK Mode U - GMSK 4k8 (G3RUH) TLM (inactive) 435.825 MHz

8 transmitters · refreshed weekly from db.satnogs.org